Time,TemperatureF,DewpointF,PressureIn,WindDirection,WindDirectionDegrees,WindSpeedMPH,WindSpeedGustMPH,Humidity,HourlyPrecipIn,Conditions,Clouds,dailyrainin,SoftwareType,DateUTC
2013-04-10 00:00:00,58.9,45.8,29.89,WNW,293,0.0,1.3,62,0.00,,,0.00,WUHU216HW,2013-04-10 04:00:00,
2013-04-10 00:05:00,58.7,45.7,29.89,NNW,338,0.4,0.9,62,0.00,,,0.00,WUHU216HW,2013-04-10 04:05:00,
2013-04-10 00:10:00,58.3,45.4,29.89,ENE,68,0.7,0.9,62,0.00,,,0.00,WUHU216HW,2013-04-10 04:10:00,
2013-04-10 00:15:00,58.1,45.2,29.89,SE,135,0.0,1.6,62,0.00,,,0.00,WUHU216HW,2013-04-10 04:15:00,
2013-04-10 00:20:00,58.0,45.0,29.89,ENE,68,0.0,1.6,62,0.00,,,0.00,WUHU216HW,2013-04-10 04:20:00,
2013-04-10 00:25:00,58.0,45.0,29.89,ENE,68,0.4,1.3,62,0.00,,,0.00,WUHU216HW,2013-04-10 04:25:00,
2013-04-10 00:30:00,57.8,45.3,29.90,ENE,68,0.4,1.1,63,0.00,,,0.00,WUHU216HW,2013-04-10 04:30:00,
2013-04-10 00:35:00,57.6,45.1,29.90,ENE,68,0.0,1.1,63,0.00,,,0.00,WUHU216HW,2013-04-10 04:35:00,
2013-04-10 00:40:00,57.4,44.9,29.89,ENE,68,0.0,0.9,63,0.00,,,0.00,WUHU216HW,2013-04-10 04:40:00,
2013-04-10 00:45:00,57.2,44.7,29.90,ENE,68,0.0,1.3,63,0.00,,,0.00,WUHU216HW,2013-04-10 04:45:00,
2013-04-10 00:50:00,57.2,44.7,29.89,ENE,68,0.0,1.3,63,0.00,,,0.00,WUHU216HW,2013-04-10 04:50:00,
2013-04-10 00:55:00,57.1,44.6,29.90,ENE,68,0.0,1.1,63,0.00,,,0.00,WUHU216HW,2013-04-10 04:55:00,
2013-04-10 01:00:00,57.1,45.0,29.90,ESE,113,0.4,1.1,64,0.00,,,0.00,WUHU216HW,2013-04-10 05:00:00,
2013-04-10 01:05:00,57.1,45.0,29.89,NE,45,0.0,1.1,64,0.00,,,0.00,WUHU216HW,2013-04-10 05:05:00,
2013-04-10 01:10:00,56.9,44.8,29.89,NE,45,0.0,0.4,64,0.00,,,0.00,WUHU216HW,2013-04-10 05:10:00,
2013-04-10 01:15:00,56.7,44.2,29.90,NNE,23,0.0,0.0,63,0.00,,,0.00,WUHU216HW,2013-04-10 05:15:00,
2013-04-10 01:20:00,56.5,44.5,29.89,NNE,23,0.0,0.0,64,0.00,,,0.00,WUHU216HW,2013-04-10 05:20:00,
2013-04-10 01:25:00,56.2,44.6,29.90,East,90,0.0,1.1,65,0.00,,,0.00,WUHU216HW,2013-04-10 05:25:00,
2013-04-10 01:30:00,56.2,44.9,29.90,East,90,0.0,1.1,66,0.00,,,0.00,WUHU216HW,2013-04-10 05:30:00,
2013-04-10 01:35:00,56.2,44.9,29.90,ESE,113,0.0,0.0,66,0.00,,,0.00,WUHU216HW,2013-04-10 05:35:00,
2013-04-10 01:40:00,56.2,44.6,29.90,ESE,113,0.0,2.0,65,0.00,,,0.00,WUHU216HW,2013-04-10 05:40:00,
2013-04-10 01:45:00,55.8,45.0,29.90,NNW,338,2.0,3.1,67,0.00,,,0.00,WUHU216HW,2013-04-10 05:45:00,
2013-04-10 01:50:00,54.9,44.1,29.90,NW,315,0.7,3.1,67,0.00,,,0.00,WUHU216HW,2013-04-10 05:50:00,
2013-04-10 01:55:00,54.5,43.8,29.90,WNW,293,0.4,1.6,67,0.00,,,0.00,WUHU216HW,2013-04-10 05:55:00,
2013-04-10 02:00:00,54.4,43.7,29.90,NE,45,1.3,1.3,67,0.00,,,0.00,WUHU216HW,2013-04-10 06:00:00,
2013-04-10 02:05:00,54.2,44.3,29.90,ESE,113,0.2,1.6,69,0.00,,,0.00,WUHU216HW,2013-04-10 06:05:00,
2013-04-10 02:10:00,54.0,43.7,29.90,NNE,23,0.0,1.6,68,0.00,,,0.00,WUHU216HW,2013-04-10 06:10:00,
2013-04-10 02:15:00,54.0,43.7,29.90,SSE,158,0.4,1.3,68,0.00,,,0.00,WUHU216HW,2013-04-10 06:15:00,
2013-04-10 02:20:00,54.0,43.7,29.90,WNW,293,0.4,1.3,68,0.00,,,0.00,WUHU216HW,2013-04-10 06:20:00,
2013-04-10 02:25:00,53.6,43.8,29.90,East,90,0.0,0.9,69,0.00,,,0.00,WUHU216HW,2013-04-10 06:25:00,
2013-04-10 02:30:00,53.6,43.8,29.90,NNW,338,1.6,1.6,69,0.00,,,0.00,WUHU216HW,2013-04-10 06:30:00,
2013-04-10 02:35:00,53.5,43.6,29.90,NNE,23,0.2,1.6,69,0.00,,,0.00,WUHU216HW,2013-04-10 06:35:00,
2013-04-10 02:40:00,53.3,43.7,29.90,ESE,113,0.0,1.6,70,0.00,,,0.00,WUHU216HW,2013-04-10 06:40:00,
2013-04-10 02:45:00,53.1,43.2,29.90,East,90,0.0,1.3,69,0.00,,,0.00,WUHU216HW,2013-04-10 06:45:00,
2013-04-10 02:50:00,53.3,44.5,29.90,NW,315,0.9,1.1,72,0.00,,,0.00,WUHU216HW,2013-04-10 06:50:00,
2013-04-10 02:55:00,53.1,44.3,29.90,East,90,0.2,2.5,72,0.00,,,0.00,WUHU216HW,2013-04-10 06:55:00,
2013-04-10 03:00:00,52.9,44.2,29.90,ESE,113,0.9,2.5,72,0.00,,,0.00,WUHU216HW,2013-04-10 07:00:00,
2013-04-10 03:05:00,52.7,43.7,29.90,ESE,113,0.0,1.1,71,0.00,,,0.00,WUHU216HW,2013-04-10 07:05:00,
2013-04-10 03:10:00,52.7,44.0,29.90,ESE,113,0.0,1.1,72,0.00,,,0.00,WUHU216HW,2013-04-10 07:10:00,
2013-04-10 03:15:00,52.6,43.8,29.90,NNW,338,0.2,1.1,72,0.00,,,0.00,WUHU216HW,2013-04-10 07:15:00,
2013-04-10 03:20:00,52.6,43.5,29.90,East,90,0.4,1.6,71,0.00,,,0.00,WUHU216HW,2013-04-10 07:20:00,
2013-04-10 03:25:00,52.2,43.1,29.90,North,0,0.7,1.6,71,0.00,,,0.00,WUHU216HW,2013-04-10 07:25:00,
2013-04-10 03:30:00,52.2,43.1,29.90,SSE,158,0.0,0.9,71,0.00,,,0.00,WUHU216HW,2013-04-10 07:30:00,
2013-04-10 03:35:00,52.0,43.3,29.90,WSW,248,0.4,2.7,72,0.00,,,0.00,WUHU216HW,2013-04-10 07:35:00,
2013-04-10 03:40:00,51.7,44.0,29.90,ESE,113,1.1,2.7,75,0.00,,,0.00,WUHU216HW,2013-04-10 07:40:00,
2013-04-10 03:45:00,51.5,43.5,29.90,East,90,1.6,1.6,74,0.00,,,0.00,WUHU216HW,2013-04-10 07:45:00,
2013-04-10 03:50:00,51.5,43.1,29.90,SSE,158,0.0,1.6,73,0.00,,,0.00,WUHU216HW,2013-04-10 07:50:00,
2013-04-10 03:55:00,51.5,43.5,29.91,North,0,1.1,2.5,74,0.00,,,0.00,WUHU216HW,2013-04-10 07:55:00,
2013-04-10 04:00:00,51.3,43.3,29.91,East,90,0.4,2.5,74,0.00,,,0.00,WUHU216HW,2013-04-10 08:00:00,
2013-04-10 04:05:00,51.3,44.0,29.91,ESE,113,1.1,2.0,76,0.00,,,0.00,WUHU216HW,2013-04-10 08:05:00,
2013-04-10 04:10:00,51.5,44.2,29.91,ESE,113,0.7,2.2,76,0.00,,,0.00,WUHU216HW,2013-04-10 08:10:00,
2013-04-10 04:15:00,51.5,44.2,29.91,NNW,338,1.3,2.5,76,0.00,,,0.00,WUHU216HW,2013-04-10 08:15:00,
2013-04-10 04:20:00,51.1,43.5,29.91,East,90,0.7,2.5,75,0.00,,,0.00,WUHU216HW,2013-04-10 08:20:00,
2013-04-10 04:25:00,50.9,43.7,29.91,East,90,1.3,1.8,76,0.00,,,0.00,WUHU216HW,2013-04-10 08:25:00,
2013-04-10 04:30:00,50.8,43.5,29.91,NW,315,0.2,3.1,76,0.00,,,0.00,WUHU216HW,2013-04-10 08:30:00,
2013-04-10 04:35:00,50.8,44.1,29.91,ESE,113,2.5,3.1,78,0.00,,,0.00,WUHU216HW,2013-04-10 08:35:00,
2013-04-10 04:40:00,51.1,44.5,29.91,SSE,158,0.0,5.8,78,0.00,,,0.00,WUHU216HW,2013-04-10 08:40:00,
2013-04-10 04:45:00,51.1,44.2,29.91,ESE,113,0.9,5.8,77,0.00,,,0.00,WUHU216HW,2013-04-10 08:45:00,
2013-04-10 04:50:00,51.3,45.0,29.91,ESE,113,1.3,2.5,79,0.00,,,0.00,WUHU216HW,2013-04-10 08:50:00,
2013-04-10 04:55:00,52.7,46.1,29.91,WSW,248,1.6,2.0,78,0.00,,,0.00,WUHU216HW,2013-04-10 08:55:00,
2013-04-10 05:00:00,52.9,45.2,29.91,East,90,0.0,3.6,75,0.00,,,0.00,WUHU216HW,2013-04-10 09:00:00,
2013-04-10 05:05:00,52.6,44.9,29.91,ENE,68,1.1,3.6,75,0.00,,,0.00,WUHU216HW,2013-04-10 09:05:00,
2013-04-10 05:10:00,52.6,44.9,29.91,SE,135,0.0,2.0,75,0.00,,,0.00,WUHU216HW,2013-04-10 09:10:00,
2013-04-10 05:15:00,53.3,46.3,29.91,East,90,0.4,2.0,77,0.00,,,0.00,WUHU216HW,2013-04-10 09:15:00,
2013-04-10 05:20:00,53.8,46.5,29.91,East,90,0.0,1.8,76,0.00,,,0.00,WUHU216HW,2013-04-10 09:20:00,
2013-04-10 05:26:00,54.5,47.4,29.91,ESE,113,0.9,1.8,77,0.00,,,0.00,WUHU216HW,2013-04-10 09:26:00,
2013-04-10 05:31:00,55.3,47.8,29.91,WNW,293,0.0,2.9,76,0.00,,,0.00,WUHU216HW,2013-04-10 09:31:00,
2013-04-10 05:36:00,55.6,48.2,29.91,ESE,113,1.1,2.9,76,0.00,,,0.00,WUHU216HW,2013-04-10 09:36:00,
2013-04-10 05:41:00,56.3,48.8,29.91,SE,135,1.1,2.7,76,0.00,,,0.00,WUHU216HW,2013-04-10 09:41:00,
2013-04-10 05:46:00,56.9,48.6,29.91,SE,135,0.0,2.7,74,0.00,,,0.00,WUHU216HW,2013-04-10 09:46:00,
2013-04-10 05:51:00,56.9,48.6,29.91,SE,135,0.7,2.5,74,0.00,,,0.00,WUHU216HW,2013-04-10 09:51:00,
2013-04-10 05:56:00,57.2,49.0,29.92,East,90,1.8,2.5,74,0.00,,,0.00,WUHU216HW,2013-04-10 09:56:00,
2013-04-10 06:01:00,57.4,48.8,29.92,SE,135,0.0,1.8,73,0.00,,,0.00,WUHU216HW,2013-04-10 10:01:00,
2013-04-10 06:06:00,57.2,48.6,29.92,SSE,158,0.9,2.0,73,0.00,,,0.00,WUHU216HW,2013-04-10 10:06:00,
2013-04-10 06:11:00,57.4,48.8,29.92,ESE,113,0.2,2.0,73,0.00,,,0.00,WUHU216HW,2013-04-10 10:11:00,
2013-04-10 06:16:00,57.4,48.8,29.91,ESE,113,0.4,1.6,73,0.00,,,0.00,WUHU216HW,2013-04-10 10:16:00,
2013-04-10 06:21:00,57.4,48.8,29.91,NNW,338,0.7,1.8,73,0.00,,,0.00,WUHU216HW,2013-04-10 10:21:00,
2013-04-10 06:26:00,57.1,48.4,29.91,East,90,1.3,1.8,73,0.00,,,0.00,WUHU216HW,2013-04-10 10:26:00,
2013-04-10 06:30:00,56.7,48.1,29.91,NW,315,0.0,1.8,73,0.00,,,0.00,WUHU216HW,2013-04-10 10:30:00,
2013-04-10 06:35:00,56.5,48.2,29.91,NNE,23,0.0,1.8,74,0.00,,,0.00,WUHU216HW,2013-04-10 10:35:00,
2013-04-10 06:40:00,56.2,48.3,29.91,ESE,113,0.4,1.3,75,0.00,,,0.00,WUHU216HW,2013-04-10 10:40:00,
2013-04-10 06:46:00,56.2,48.0,29.91,ESE,113,0.2,1.3,74,0.00,,,0.00,WUHU216HW,2013-04-10 10:46:00,
2013-04-10 06:51:00,56.2,48.0,29.91,WSW,248,0.0,1.1,74,0.00,,,0.00,WUHU216HW,2013-04-10 10:51:00,
2013-04-10 06:56:00,56.2,48.3,29.91,East,90,0.7,1.1,75,0.00,,,0.00,WUHU216HW,2013-04-10 10:56:00,
2013-04-10 07:01:00,56.2,48.6,29.91,East,90,0.0,0.9,76,0.00,,,0.00,WUHU216HW,2013-04-10 11:01:00,
2013-04-10 07:06:00,56.2,48.6,29.91,West,270,0.9,1.1,76,0.00,,,0.00,WUHU216HW,2013-04-10 11:06:00,
2013-04-10 07:11:00,55.8,48.3,29.91,SE,135,0.0,2.2,76,0.00,,,0.00,WUHU216HW,2013-04-10 11:11:00,
2013-04-10 07:16:00,55.4,47.6,29.92,ENE,68,0.2,2.2,75,0.00,,,0.00,WUHU216HW,2013-04-10 11:16:00,
2013-04-10 07:21:00,55.3,47.8,29.92,NW,315,0.4,3.6,76,0.00,,,0.00,WUHU216HW,2013-04-10 11:21:00,
2013-04-10 07:26:00,55.1,47.6,29.92,NNW,338,0.0,3.6,76,0.00,,,0.00,WUHU216HW,2013-04-10 11:26:00,
2013-04-10 07:31:00,54.9,47.4,29.91,East,90,0.0,0.4,76,0.00,,,0.00,WUHU216HW,2013-04-10 11:31:00,
2013-04-10 07:36:00,54.9,47.8,29.91,West,270,0.0,1.1,77,0.00,,,0.00,WUHU216HW,2013-04-10 11:36:00,
2013-04-10 07:41:00,55.1,48.0,29.92,West,270,0.0,1.1,77,0.00,,,0.00,WUHU216HW,2013-04-10 11:41:00,
2013-04-10 07:46:00,55.1,48.0,29.92,East,90,0.4,1.1,77,0.00,,,0.00,WUHU216HW,2013-04-10 11:46:00,
2013-04-10 07:51:00,55.1,48.0,29.92,WSW,248,0.4,1.1,77,0.00,,,0.00,WUHU216HW,2013-04-10 11:51:00,
2013-04-10 07:56:00,55.3,48.2,29.92,NNW,338,0.0,1.1,77,0.00,,,0.00,WUHU216HW,2013-04-10 11:56:00,
2013-04-10 08:01:00,55.4,48.3,29.92,WNW,293,0.0,1.6,77,0.00,,,0.00,WUHU216HW,2013-04-10 12:01:00,
2013-04-10 08:06:00,55.8,48.6,29.92,NW,315,0.4,1.6,77,0.00,,,0.00,WUHU216HW,2013-04-10 12:06:00,
2013-04-10 08:11:00,56.0,48.8,29.92,NNE,23,0.0,1.3,77,0.00,,,0.00,WUHU216HW,2013-04-10 12:11:00,
2013-04-10 08:16:00,56.5,49.3,29.92,NNE,23,0.0,0.9,77,0.00,,,0.00,WUHU216HW,2013-04-10 12:16:00,
2013-04-10 08:21:00,56.9,49.7,29.92,NNE,23,0.0,0.0,77,0.00,,,0.00,WUHU216HW,2013-04-10 12:21:00,
2013-04-10 08:26:00,57.4,50.2,29.93,NNE,23,0.0,0.0,77,0.00,,,0.00,WUHU216HW,2013-04-10 12:26:00,
2013-04-10 08:31:00,58.1,50.6,29.93,NNE,23,0.0,0.0,76,0.00,,,0.00,WUHU216HW,2013-04-10 12:31:00,
2013-04-10 08:36:00,58.9,51.3,29.93,North,0,0.0,0.0,76,0.00,,,0.00,WUHU216HW,2013-04-10 12:36:00,
2013-04-10 08:41:00,59.4,51.8,29.93,SE,135,0.7,1.6,76,0.00,,,0.00,WUHU216HW,2013-04-10 12:41:00,
2013-04-10 08:46:00,60.3,52.0,29.93,South,180,0.9,1.8,74,0.00,,,0.00,WUHU216HW,2013-04-10 12:46:00,
2013-04-10 08:51:00,61.4,52.7,29.93,South,180,0.2,1.8,73,0.00,,,0.00,WUHU216HW,2013-04-10 12:51:00,
2013-04-10 08:56:00,62.1,53.0,29.93,SE,135,0.0,1.8,72,0.00,,,0.00,WUHU216HW,2013-04-10 12:56:00,
2013-04-10 09:01:00,62.8,53.3,29.93,SE,135,1.1,1.8,71,0.00,,,0.00,WUHU216HW,2013-04-10 13:01:00,
2013-04-10 09:06:00,63.4,53.0,29.93,SSE,158,1.3,1.3,69,0.00,,,0.00,WUHU216HW,2013-04-10 13:06:00,
2013-04-10 09:11:00,63.9,53.6,29.92,SSE,158,0.0,1.8,69,0.00,,,0.00,WUHU216HW,2013-04-10 13:11:00,
2013-04-10 09:16:00,64.4,53.6,29.92,WSW,248,0.9,1.8,68,0.00,,,0.00,WUHU216HW,2013-04-10 13:16:00,
2013-04-10 09:21:00,64.8,53.6,29.92,NW,315,0.0,1.8,67,0.00,,,0.00,WUHU216HW,2013-04-10 13:21:00,
2013-04-10 09:26:00,65.5,53.8,29.92,ENE,68,1.6,1.8,66,0.00,,,0.00,WUHU216HW,2013-04-10 13:26:00,
2013-04-10 09:31:00,66.2,54.1,29.92,NNW,338,0.4,2.2,65,0.00,,,0.00,WUHU216HW,2013-04-10 13:31:00,
2013-04-10 09:36:00,67.0,54.8,29.92,SSE,158,0.7,3.1,65,0.00,,,0.00,WUHU216HW,2013-04-10 13:36:00,
2013-04-10 09:41:00,68.0,55.4,29.92,SSW,203,1.8,3.1,64,0.00,,,0.00,WUHU216HW,2013-04-10 13:41:00,
2013-04-10 09:46:00,68.9,54.5,29.92,NNW,338,1.8,3.8,60,0.00,,,0.00,WUHU216HW,2013-04-10 13:46:00,
2013-04-10 09:52:00,69.5,55.5,29.92,WSW,248,1.8,3.8,61,0.00,,,0.00,WUHU216HW,2013-04-10 13:52:00,
2013-04-10 09:57:00,70.2,56.2,29.92,NW,315,0.7,3.4,61,0.00,,,0.00,WUHU216HW,2013-04-10 13:57:00,
2013-04-10 10:02:00,71.3,56.7,29.92,SW,225,3.1,3.6,60,0.00,,,0.00,WUHU216HW,2013-04-10 14:02:00,
2013-04-10 10:07:00,71.6,56.5,29.92,South,180,3.1,3.6,59,0.00,,,0.00,WUHU216HW,2013-04-10 14:07:00,
2013-04-10 10:12:00,72.0,56.3,29.92,West,270,2.0,3.6,58,0.00,,,0.00,WUHU216HW,2013-04-10 14:12:00,
2013-04-10 10:17:00,72.7,55.0,29.92,SSE,158,3.8,5.1,54,0.00,,,0.00,WUHU216HW,2013-04-10 14:17:00,
2013-04-10 10:22:00,73.1,56.9,29.92,SW,225,3.6,5.1,57,0.00,,,0.00,WUHU216HW,2013-04-10 14:22:00,
2013-04-10 10:27:00,73.6,56.9,29.92,WSW,248,2.0,4.9,56,0.00,,,0.00,WUHU216HW,2013-04-10 14:27:00,
2013-04-10 10:32:00,73.8,56.5,29.92,SE,135,2.0,4.9,55,0.00,,,0.00,WUHU216HW,2013-04-10 14:32:00,
2013-04-10 10:37:00,74.9,57.6,29.91,NW,315,3.1,3.8,55,0.00,,,0.00,WUHU216HW,2013-04-10 14:37:00,
2013-04-10 10:42:00,75.2,57.0,29.92,SW,225,4.0,6.7,53,0.00,,,0.00,WUHU216HW,2013-04-10 14:42:00,
2013-04-10 10:47:00,75.6,57.8,29.92,WSW,248,3.6,6.7,54,0.00,,,0.00,WUHU216HW,2013-04-10 14:47:00,
2013-04-10 10:52:00,75.4,56.1,29.92,WNW,293,6.9,6.9,51,0.00,,,0.00,WUHU216HW,2013-04-10 14:52:00,
2013-04-10 10:57:00,74.5,55.7,29.91,NW,315,7.6,8.9,52,0.00,,,0.00,WUHU216HW,2013-04-10 14:57:00,
2013-04-10 11:02:00,74.5,56.3,29.91,NNW,338,6.0,8.9,53,0.00,,,0.00,WUHU216HW,2013-04-10 15:02:00,
2013-04-10 11:07:00,74.7,55.5,29.91,NW,315,4.3,8.9,51,0.00,,,0.00,WUHU216HW,2013-04-10 15:07:00,
2013-04-10 11:12:00,75.6,57.2,29.91,WSW,248,4.0,8.9,53,0.00,,,0.00,WUHU216HW,2013-04-10 15:12:00,
2013-04-10 11:17:00,77.4,57.9,29.91,WNW,293,3.6,6.5,51,0.00,,,0.00,WUHU216HW,2013-04-10 15:17:00,
2013-04-10 11:22:00,78.1,56.8,29.91,WSW,248,4.0,6.5,48,0.00,,,0.00,WUHU216HW,2013-04-10 15:22:00,
2013-04-10 11:27:00,78.7,57.9,29.91,South,180,2.5,6.9,49,0.00,,,0.00,WUHU216HW,2013-04-10 15:27:00,
2013-04-10 11:32:00,79.6,56.9,29.91,SW,225,2.0,6.9,46,0.00,,,0.00,WUHU216HW,2013-04-10 15:32:00,
2013-04-10 11:37:00,80.5,58.3,29.91,WNW,293,2.0,5.1,47,0.00,,,0.00,WUHU216HW,2013-04-10 15:37:00,
2013-04-10 11:42:00,80.1,56.8,29.91,South,180,2.7,10.7,45,0.00,,,0.00,WUHU216HW,2013-04-10 15:42:00,
2013-04-10 11:47:00,80.1,56.8,29.91,West,270,4.0,10.7,45,0.00,,,0.00,WUHU216HW,2013-04-10 15:47:00,
2013-04-10 11:52:00,81.2,58.3,29.90,WSW,248,4.7,8.9,46,0.00,,,0.00,WUHU216HW,2013-04-10 15:52:00,
2013-04-10 11:57:00,82.3,58.7,29.90,WSW,248,1.8,5.1,45,0.00,,,0.00,WUHU216HW,2013-04-10 15:57:00,
2013-04-10 12:02:00,83.0,57.5,29.90,WSW,248,2.2,5.1,42,0.00,,,0.00,WUHU216HW,2013-04-10 16:02:00,
2013-04-10 12:07:00,83.9,59.0,29.90,West,270,3.1,4.7,43,0.00,,,0.00,WUHU216HW,2013-04-10 16:07:00,
2013-04-10 12:12:00,84.6,59.1,29.90,WSW,248,2.5,5.8,42,0.00,,,0.00,WUHU216HW,2013-04-10 16:12:00,
2013-04-10 12:17:00,85.7,58.0,29.90,WSW,248,6.3,6.3,39,0.00,,,0.00,WUHU216HW,2013-04-10 16:17:00,
2013-04-10 12:22:00,85.7,56.3,29.90,West,270,5.4,6.9,37,0.00,,,0.00,WUHU216HW,2013-04-10 16:22:00,
2013-04-10 12:27:00,84.6,57.8,29.90,WSW,248,4.7,6.9,40,0.00,,,0.00,WUHU216HW,2013-04-10 16:27:00,
2013-04-10 12:32:00,85.3,56.8,29.89,WSW,248,5.4,5.4,38,0.00,,,0.00,WUHU216HW,2013-04-10 16:32:00,
2013-04-10 12:37:00,84.2,55.8,29.89,NW,315,4.0,5.6,38,0.00,,,0.00,WUHU216HW,2013-04-10 16:37:00,
2013-04-10 12:43:00,84.2,57.4,29.89,West,270,4.0,5.6,40,0.00,,,0.00,WUHU216HW,2013-04-10 16:43:00,
2013-04-10 12:48:00,84.6,57.8,29.89,WSW,248,3.8,5.1,40,0.00,,,0.00,WUHU216HW,2013-04-10 16:48:00,
2013-04-10 12:53:00,86.4,58.6,29.89,WSW,248,3.4,5.1,39,0.00,,,0.00,WUHU216HW,2013-04-10 16:53:00,
2013-04-10 12:58:00,86.9,59.0,29.89,SW,225,2.5,5.8,39,0.00,,,0.00,WUHU216HW,2013-04-10 16:58:00,
2013-04-10 13:03:00,86.0,54.3,29.89,NW,315,7.2,7.2,34,0.00,,,0.00,WUHU216HW,2013-04-10 17:03:00,
2013-04-10 13:08:00,84.1,54.9,29.88,NW,315,2.7,7.2,37,0.00,,,0.00,WUHU216HW,2013-04-10 17:08:00,
2013-04-10 13:13:00,84.2,55.1,29.88,SSW,203,5.4,7.2,37,0.00,,,0.00,WUHU216HW,2013-04-10 17:13:00,
2013-04-10 13:18:00,85.3,56.8,29.88,WSW,248,4.0,5.4,38,0.00,,,0.00,WUHU216HW,2013-04-10 17:18:00,
2013-04-10 13:23:00,86.6,56.4,29.88,NW,315,5.4,8.1,36,0.00,,,0.00,WUHU216HW,2013-04-10 17:23:00,
2013-04-10 13:28:00,85.5,54.6,29.88,NNW,338,7.4,8.1,35,0.00,,,0.00,WUHU216HW,2013-04-10 17:28:00,
2013-04-10 13:33:00,82.6,54.4,29.88,WNW,293,3.1,8.5,38,0.00,,,0.00,WUHU216HW,2013-04-10 17:33:00,
2013-04-10 13:38:00,83.9,54.7,29.88,NE,45,0.4,8.5,37,0.00,,,0.00,WUHU216HW,2013-04-10 17:38:00,
2013-04-10 13:43:00,86.0,56.7,29.87,SSW,203,3.1,5.4,37,0.00,,,0.00,WUHU216HW,2013-04-10 17:43:00,
2013-04-10 13:48:00,87.8,59.0,29.87,South,180,4.3,4.3,38,0.00,,,0.00,WUHU216HW,2013-04-10 17:48:00,
2013-04-10 13:53:00,88.0,55.2,29.87,WSW,248,3.1,8.5,33,0.00,,,0.00,WUHU216HW,2013-04-10 17:53:00,
2013-04-10 13:58:00,88.2,55.3,29.87,South,180,1.3,8.5,33,0.00,,,0.00,WUHU216HW,2013-04-10 17:58:00,
2013-04-10 14:03:00,88.7,56.6,29.87,SSW,203,4.7,5.1,34,0.00,,,0.00,WUHU216HW,2013-04-10 18:03:00,
2013-04-10 14:08:00,89.3,57.1,29.87,West,270,4.0,5.4,34,0.00,,,0.00,WUHU216HW,2013-04-10 18:08:00,
2013-04-10 14:13:00,89.3,57.1,29.86,WSW,248,4.5,5.4,34,0.00,,,0.00,WUHU216HW,2013-04-10 18:13:00,
2013-04-10 14:18:00,89.8,56.7,29.86,West,270,1.3,5.8,33,0.00,,,0.00,WUHU216HW,2013-04-10 18:18:00,
2013-04-10 14:23:00,90.2,57.1,29.86,South,180,1.6,5.8,33,0.00,,,0.00,WUHU216HW,2013-04-10 18:23:00,
2013-04-10 14:28:00,90.4,55.6,29.86,WSW,248,4.0,5.8,31,0.00,,,0.00,WUHU216HW,2013-04-10 18:28:00,
2013-04-10 14:33:00,89.6,55.8,29.86,SSW,203,2.7,6.7,32,0.00,,,0.00,WUHU216HW,2013-04-10 18:33:00,
2013-04-10 14:38:00,89.6,53.1,29.86,SSW,203,3.1,6.7,29,0.00,,,0.00,WUHU216HW,2013-04-10 18:38:00,
2013-04-10 14:43:00,89.6,54.2,29.86,WSW,248,5.1,5.8,30,0.00,,,0.00,WUHU216HW,2013-04-10 18:43:00,
2013-04-10 14:48:00,89.1,53.7,29.86,West,270,2.5,9.2,30,0.00,,,0.00,WUHU216HW,2013-04-10 18:48:00,
2013-04-10 14:53:00,88.9,55.2,29.85,SW,225,4.0,9.2,32,0.00,,,0.00,WUHU216HW,2013-04-10 18:53:00,
2013-04-10 14:58:00,88.7,55.0,29.85,South,180,3.4,7.4,32,0.00,,,0.00,WUHU216HW,2013-04-10 18:58:00,
2013-04-10 15:03:00,88.7,55.8,29.85,South,180,2.5,7.4,33,0.00,,,0.00,WUHU216HW,2013-04-10 19:03:00,
2013-04-10 15:08:00,89.3,55.4,29.84,SW,225,5.8,5.8,32,0.00,,,0.00,WUHU216HW,2013-04-10 19:08:00,
2013-04-10 15:13:00,88.7,53.4,29.84,SSE,158,2.7,5.8,30,0.00,,,0.00,WUHU216HW,2013-04-10 19:13:00,
2013-04-10 15:18:00,88.6,55.6,29.84,WSW,248,2.7,7.6,33,0.00,,,0.00,WUHU216HW,2013-04-10 19:18:00,
2013-04-10 15:23:00,88.6,55.6,29.84,SSW,203,2.5,7.6,33,0.00,,,0.00,WUHU216HW,2013-04-10 19:23:00,
2013-04-10 15:28:00,88.4,55.4,29.84,WSW,248,2.0,6.0,33,0.00,,,0.00,WUHU216HW,2013-04-10 19:28:00,
2013-04-10 15:33:00,88.4,55.4,29.83,SW,225,2.2,6.0,33,0.00,,,0.00,WUHU216HW,2013-04-10 19:33:00,
2013-04-10 15:38:00,88.4,54.6,29.83,South,180,2.7,4.3,32,0.00,,,0.00,WUHU216HW,2013-04-10 19:38:00,
2013-04-10 15:43:00,88.2,54.6,29.83,SW,225,3.8,4.7,32,0.00,,,0.00,WUHU216HW,2013-04-10 19:43:00,
2013-04-10 15:48:00,87.8,53.4,29.83,SW,225,2.5,5.4,31,0.00,,,0.00,WUHU216HW,2013-04-10 19:48:00,
2013-04-10 15:53:00,87.7,54.0,29.82,SSW,203,5.1,6.0,32,0.00,,,0.00,WUHU216HW,2013-04-10 19:53:00,
2013-04-10 15:58:00,87.3,52.9,29.82,SW,225,3.1,6.9,31,0.00,,,0.00,WUHU216HW,2013-04-10 19:58:00,
2013-04-10 16:03:00,87.1,53.6,29.82,South,180,3.6,6.9,32,0.00,,,0.00,WUHU216HW,2013-04-10 20:03:00,
2013-04-10 16:08:00,87.1,53.6,29.81,SSW,203,2.0,5.1,32,0.00,,,0.00,WUHU216HW,2013-04-10 20:08:00,
2013-04-10 16:13:00,87.1,52.8,29.81,SW,225,4.0,4.7,31,0.00,,,0.00,WUHU216HW,2013-04-10 20:13:00,
2013-04-10 16:18:00,87.1,52.8,29.81,SSW,203,1.8,4.7,31,0.00,,,0.00,WUHU216HW,2013-04-10 20:18:00,
2013-04-10 16:23:00,86.9,53.5,29.81,SW,225,4.5,5.8,32,0.00,,,0.00,WUHU216HW,2013-04-10 20:23:00,
2013-04-10 16:28:00,87.1,53.6,29.81,NNE,23,2.5,5.8,32,0.00,,,0.00,WUHU216HW,2013-04-10 20:28:00,
2013-04-10 16:33:00,86.9,52.7,29.81,SSW,203,4.7,6.3,31,0.00,,,0.00,WUHU216HW,2013-04-10 20:33:00,
2013-04-10 16:38:00,86.4,51.4,29.81,South,180,2.5,6.3,30,0.00,,,0.00,WUHU216HW,2013-04-10 20:38:00,
2013-04-10 16:43:00,85.9,51.8,29.81,SW,225,2.9,5.4,31,0.00,,,0.00,WUHU216HW,2013-04-10 20:43:00,
2013-04-10 16:48:00,86.0,52.8,29.80,WSW,248,4.0,4.9,32,0.00,,,0.00,WUHU216HW,2013-04-10 20:48:00,
2013-04-10 16:53:00,86.2,52.0,29.80,WSW,248,1.8,5.6,31,0.00,,,0.00,WUHU216HW,2013-04-10 20:53:00,
2013-04-10 16:58:00,86.4,52.2,29.80,SSW,203,4.5,5.6,31,0.00,,,0.00,WUHU216HW,2013-04-10 20:58:00,
2013-04-10 17:03:00,86.0,51.9,29.79,WSW,248,4.7,5.4,31,0.00,,,0.00,WUHU216HW,2013-04-10 21:03:00,
2013-04-10 17:08:00,86.0,51.1,29.80,SSE,158,5.4,6.9,30,0.00,,,0.00,WUHU216HW,2013-04-10 21:08:00,
2013-04-10 17:13:00,85.5,51.4,29.80,SSW,203,4.3,6.9,31,0.00,,,0.00,WUHU216HW,2013-04-10 21:13:00,
2013-04-10 17:18:00,85.1,51.1,29.79,WSW,248,4.3,7.2,31,0.00,,,0.00,WUHU216HW,2013-04-10 21:18:00,
2013-04-10 17:23:00,84.8,50.8,29.79,SW,225,2.7,7.6,31,0.00,,,0.00,WUHU216HW,2013-04-10 21:23:00,
2013-04-10 17:28:00,84.6,51.4,29.79,WSW,248,3.6,7.6,32,0.00,,,0.00,WUHU216HW,2013-04-10 21:28:00,
2013-04-10 17:33:00,83.9,50.8,29.79,SSW,203,3.1,5.4,32,0.00,,,0.00,WUHU216HW,2013-04-10 21:33:00,
2013-04-10 17:38:00,83.3,50.3,29.79,SW,225,3.1,5.4,32,0.00,,,0.00,WUHU216HW,2013-04-10 21:38:00,
2013-04-10 17:43:00,83.5,50.4,29.79,SW,225,3.4,4.7,32,0.00,,,0.00,WUHU216HW,2013-04-10 21:43:00,
2013-04-10 17:48:00,83.5,50.4,29.79,WSW,248,2.5,5.6,32,0.00,,,0.00,WUHU216HW,2013-04-10 21:48:00,
2013-04-10 17:53:00,83.3,50.3,29.79,SW,225,3.6,5.6,32,0.00,,,0.00,WUHU216HW,2013-04-10 21:53:00,
2013-04-10 17:58:00,83.0,50.0,29.79,SSE,158,3.1,4.7,32,0.00,,,0.00,WUHU216HW,2013-04-10 21:58:00,
2013-04-10 18:03:00,82.4,49.5,29.79,South,180,2.7,4.7,32,0.00,,,0.00,WUHU216HW,2013-04-10 22:03:00,
2013-04-10 18:08:00,82.4,50.2,29.79,SW,225,3.8,5.4,33,0.00,,,0.00,WUHU216HW,2013-04-10 22:08:00,
2013-04-10 18:13:00,82.3,49.3,29.79,SW,225,4.3,6.0,32,0.00,,,0.00,WUHU216HW,2013-04-10 22:13:00,
2013-04-10 18:18:00,82.1,50.0,29.78,WSW,248,1.8,6.0,33,0.00,,,0.00,WUHU216HW,2013-04-10 22:18:00,
2013-04-10 18:23:00,81.9,49.1,29.78,SSE,158,1.1,5.6,32,0.00,,,0.00,WUHU216HW,2013-04-10 22:23:00,
2013-04-10 18:28:00,81.7,49.7,29.78,SW,225,2.5,4.0,33,0.00,,,0.00,WUHU216HW,2013-04-10 22:28:00,
2013-04-10 18:33:00,81.4,49.3,29.78,SW,225,1.8,4.5,33,0.00,,,0.00,WUHU216HW,2013-04-10 22:33:00,
2013-04-10 18:38:00,81.0,49.1,29.78,WNW,293,2.0,6.3,33,0.00,,,0.00,WUHU216HW,2013-04-10 22:38:00,
2013-04-10 18:43:00,80.6,48.0,29.78,WSW,248,3.1,8.9,32,0.00,,,0.00,WUHU216HW,2013-04-10 22:43:00,
2013-04-10 18:48:00,80.6,48.8,29.78,WSW,248,4.0,8.9,33,0.00,,,0.00,WUHU216HW,2013-04-10 22:48:00,
2013-04-10 18:53:00,80.5,48.6,29.78,SSW,203,1.6,7.4,33,0.00,,,0.00,WUHU216HW,2013-04-10 22:53:00,
2013-04-10 18:58:00,80.3,48.4,29.78,SSW,203,1.8,4.0,33,0.00,,,0.00,WUHU216HW,2013-04-10 22:58:00,
2013-04-10 19:03:00,80.1,48.2,29.78,SW,225,1.6,6.3,33,0.00,,,0.00,WUHU216HW,2013-04-10 23:03:00,
2013-04-10 19:08:00,79.7,48.7,29.78,WSW,248,2.7,6.3,34,0.00,,,0.00,WUHU216HW,2013-04-10 23:08:00,
2013-04-10 19:13:00,79.6,48.6,29.78,WSW,248,1.6,3.6,34,0.00,,,0.00,WUHU216HW,2013-04-10 23:13:00,
2013-04-10 19:18:00,79.2,48.2,29.78,SW,225,2.0,4.0,34,0.00,,,0.00,WUHU216HW,2013-04-10 23:18:00,
2013-04-10 19:23:00,78.8,47.9,29.78,SW,225,2.2,4.7,34,0.00,,,0.00,WUHU216HW,2013-04-10 23:23:00,
2013-04-10 19:28:00,78.7,47.8,29.78,South,180,2.5,4.7,34,0.00,,,0.00,WUHU216HW,2013-04-10 23:28:00,
2013-04-10 19:33:00,78.5,48.4,29.77,SSW,203,1.1,3.6,35,0.00,,,0.00,WUHU216HW,2013-04-10 23:33:00,
2013-04-10 19:38:00,78.1,48.1,29.77,SSW,203,1.1,3.4,35,0.00,,,0.00,WUHU216HW,2013-04-10 23:38:00,
2013-04-10 19:43:00,77.8,47.8,29.77,SW,225,2.0,2.5,35,0.00,,,0.00,WUHU216HW,2013-04-10 23:43:00,
2013-04-10 19:48:00,77.4,48.3,29.77,SW,225,1.8,2.2,36,0.00,,,0.00,WUHU216HW,2013-04-10 23:48:00,
2013-04-10 19:53:00,77.0,48.7,29.77,SW,225,1.3,2.7,37,0.00,,,0.00,WUHU216HW,2013-04-10 23:53:00,
2013-04-10 19:58:00,76.7,48.3,29.78,SSW,203,1.1,2.7,37,0.00,,,0.00,WUHU216HW,2013-04-10 23:58:00,
2013-04-10 20:03:00,76.3,48.1,29.78,SW,225,1.1,2.5,37,0.00,,,0.00,WUHU216HW,2013-04-11 00:03:00,
2013-04-10 20:08:00,76.1,47.9,29.78,WSW,248,0.4,2.5,37,0.00,,,0.00,WUHU216HW,2013-04-11 00:08:00,
2013-04-10 20:13:00,75.8,47.5,29.78,SSW,203,2.0,2.0,37,0.00,,,0.00,WUHU216HW,2013-04-11 00:13:00,
2013-04-10 20:18:00,75.6,48.2,29.78,SSW,203,2.2,4.0,38,0.00,,,0.00,WUHU216HW,2013-04-11 00:18:00,
2013-04-10 20:23:00,75.2,47.8,29.78,SW,225,1.8,4.0,38,0.00,,,0.00,WUHU216HW,2013-04-11 00:23:00,
2013-04-10 20:28:00,75.1,47.6,29.78,SSW,203,1.8,4.0,38,0.00,,,0.00,WUHU216HW,2013-04-11 00:28:00,
2013-04-10 20:33:00,74.7,47.4,29.78,SW,225,2.0,4.0,38,0.00,,,0.00,WUHU216HW,2013-04-11 00:33:00,
2013-04-10 20:38:00,74.7,47.4,29.78,SSW,203,1.8,3.1,38,0.00,,,0.00,WUHU216HW,2013-04-11 00:38:00,
2013-04-10 20:43:00,74.5,47.2,29.78,WSW,248,1.6,2.9,38,0.00,,,0.00,WUHU216HW,2013-04-11 00:43:00,
2013-04-10 20:48:00,74.3,47.0,29.78,WSW,248,2.2,3.1,38,0.00,,,0.00,WUHU216HW,2013-04-11 00:48:00,
2013-04-10 20:53:00,74.2,46.8,29.78,SW,225,0.9,3.1,38,0.00,,,0.00,WUHU216HW,2013-04-11 00:53:00,
2013-04-10 20:58:00,73.8,46.5,29.78,SW,225,0.9,3.4,38,0.00,,,0.00,WUHU216HW,2013-04-11 00:58:00,
2013-04-10 21:03:00,73.6,46.4,29.79,SSW,203,1.1,3.6,38,0.00,,,0.00,WUHU216HW,2013-04-11 01:03:00,
2013-04-10 21:08:00,73.3,46.8,29.79,SW,225,0.9,3.6,39,0.00,,,0.00,WUHU216HW,2013-04-11 01:08:00,
2013-04-10 21:13:00,73.1,46.6,29.79,SSW,203,0.7,1.8,39,0.00,,,0.00,WUHU216HW,2013-04-11 01:13:00,
2013-04-10 21:18:00,72.5,46.2,29.79,SW,225,0.4,1.3,39,0.00,,,0.00,WUHU216HW,2013-04-11 01:18:00,
2013-04-10 21:23:00,72.2,45.8,29.80,SW,225,0.0,1.1,39,0.00,,,0.00,WUHU216HW,2013-04-11 01:23:00,
2013-04-10 21:28:00,71.6,46.1,29.80,North,0,0.2,2.0,40,0.00,,,0.00,WUHU216HW,2013-04-11 01:28:00,
2013-04-10 21:33:00,70.9,46.0,29.79,North,0,0.0,2.0,41,0.00,,,0.00,WUHU216HW,2013-04-11 01:33:00,
2013-04-10 21:38:00,70.4,45.5,29.79,North,0,0.0,0.9,41,0.00,,,0.00,WUHU216HW,2013-04-11 01:38:00,
2013-04-10 21:43:00,70.2,46.0,29.79,NW,315,1.3,1.8,42,0.00,,,0.00,WUHU216HW,2013-04-11 01:43:00,
2013-04-10 21:48:00,69.7,46.1,29.79,NW,315,0.0,1.8,43,0.00,,,0.00,WUHU216HW,2013-04-11 01:48:00,
2013-04-10 21:53:00,69.1,45.6,29.80,NW,315,0.0,1.3,43,0.00,,,0.00,WUHU216HW,2013-04-11 01:53:00,
2013-04-10 21:58:00,68.8,45.3,29.80,NW,315,0.0,0.0,43,0.00,,,0.00,WUHU216HW,2013-04-11 01:58:00,
2013-04-10 22:03:00,68.4,44.9,29.80,NW,315,0.0,0.0,43,0.00,,,0.00,WUHU216HW,2013-04-11 02:03:00,
2013-04-10 22:08:00,68.0,45.2,29.80,North,0,0.4,0.9,44,0.00,,,0.00,WUHU216HW,2013-04-11 02:08:00,
2013-04-10 22:13:00,67.7,44.9,29.80,North,0,0.0,0.9,44,0.00,,,0.00,WUHU216HW,2013-04-11 02:13:00,
2013-04-10 22:18:00,67.7,45.5,29.80,SSE,158,0.4,0.9,45,0.00,,,0.00,WUHU216HW,2013-04-11 02:18:00,
2013-04-10 22:23:00,67.7,45.5,29.80,SSE,158,0.0,0.9,45,0.00,,,0.00,WUHU216HW,2013-04-11 02:23:00,
2013-04-10 22:28:00,67.3,45.2,29.80,SSE,158,0.0,1.1,45,0.00,,,0.00,WUHU216HW,2013-04-11 02:28:00,
2013-04-10 22:33:00,66.6,45.1,29.80,ESE,113,0.4,1.1,46,0.00,,,0.00,WUHU216HW,2013-04-11 02:33:00,
2013-04-10 22:38:00,66.2,44.8,29.80,ESE,113,0.0,1.1,46,0.00,,,0.00,WUHU216HW,2013-04-11 02:38:00,
2013-04-10 22:43:00,66.1,44.7,29.80,ENE,68,1.1,1.1,46,0.00,,,0.00,WUHU216HW,2013-04-11 02:43:00,
2013-04-10 22:48:00,65.5,44.1,29.80,ENE,68,0.0,1.1,46,0.00,,,0.00,WUHU216HW,2013-04-11 02:48:00,
2013-04-10 22:53:00,65.0,44.2,29.80,ENE,68,0.0,0.9,47,0.00,,,0.00,WUHU216HW,2013-04-11 02:53:00,
2013-04-10 22:58:00,64.6,44.4,29.80,East,90,0.0,0.0,48,0.00,,,0.00,WUHU216HW,2013-04-11 02:58:00,
2013-04-10 23:03:00,64.4,44.2,29.81,East,90,0.4,0.9,48,0.00,,,0.00,WUHU216HW,2013-04-11 03:03:00,
2013-04-10 23:08:00,64.3,44.0,29.80,East,90,0.0,0.9,48,0.00,,,0.00,WUHU216HW,2013-04-11 03:08:00,
2013-04-10 23:13:00,64.1,44.5,29.80,SE,135,0.4,1.3,49,0.00,,,0.00,WUHU216HW,2013-04-11 03:13:00,
2013-04-10 23:18:00,63.7,44.1,29.80,SE,135,0.0,1.3,49,0.00,,,0.00,WUHU216HW,2013-04-11 03:18:00,
2013-04-10 23:23:00,63.7,44.7,29.80,North,0,0.4,0.9,50,0.00,,,0.00,WUHU216HW,2013-04-11 03:23:00,
2013-04-10 23:28:00,63.9,44.9,29.80,WNW,293,0.0,0.7,50,0.00,,,0.00,WUHU216HW,2013-04-11 03:28:00,
2013-04-10 23:33:00,63.5,45.0,29.79,NW,315,0.0,0.7,51,0.00,,,0.00,WUHU216HW,2013-04-11 03:33:00,
2013-04-10 23:38:00,63.0,44.6,29.80,NW,315,0.0,0.0,51,0.00,,,0.00,WUHU216HW,2013-04-11 03:38:00,
2013-04-10 23:43:00,62.5,44.6,29.79,NW,315,0.0,0.0,52,0.00,,,0.00,WUHU216HW,2013-04-11 03:43:00,
2013-04-10 23:48:00,62.1,45.2,29.79,NW,315,0.0,0.0,54,0.00,,,0.00,WUHU216HW,2013-04-11 03:48:00,
2013-04-10 23:53:00,61.7,44.9,29.79,North,0,0.0,0.0,54,0.00,,,0.00,WUHU216HW,2013-04-11 03:53:00,
2013-04-10 23:58:00,61.7,44.9,29.79,North,0,0.0,0.0,54,0.00,,,0.00,WUHU216HW,2013-04-11 03:58:00,